Weather History for KSRB - April, 2014

Change the Weather History Date:

Wednesday, April 30, 2014

  Actual Average (KCSV) Record (KCSV)
Temperature  
Mean Temperature 63 °F 60 °F  
Max Temperature 71 °F 71 °F 86 °F (1962)
Min Temperature 55 °F 49 °F 35 °F (2008)
Degree Days  
Heating Degree Days 2    
Month to date heating degree days  
Since 1 July heating degree days  
Cooling Degree Days 0    
Month to date cooling degree days  
Year to date cooling degree days  
Growing Degree Days 13 (Base 50)    
Moisture  
Dew Point 54 °F    
Average Humidity 80    
Maximum Humidity 100    
Minimum Humidity 52    
Precipitation  
Precipitation 0.00 in 0.15 in 1.69 in (1998)
Month to date precipitation 4.82  
Year to date precipitation 19.02  
Sea Level Pressure  
Sea Level Pressure 29.85 in    
Wind  
Wind Speed 3 mph (NW)    
Max Wind Speed 10 mph    
Max Gust Speed -    
Visibility 8 miles    
Events      
T = Trace of Precipitation, MM = Missing Value Source: NWS Daily Summary

Daily Weather History Graph

Daily Weather History Graph

Search for Another Location

Airport or City:

Trip Planner

Search our weather history database for the weather conditions in past years. The results will help you decide how hot, cold, wet, or windy it might be!

Date:

Astronomy

Apr. 30, 2014 Rise Set
Actual Time 5:50 AM CDT 7:28 PM CDT
Civil Twilight 5:23 AM CDT 7:56 PM CDT
Nautical Twilight 4:50 AM CDT 8:29 PM CDT
Astronomical Twilight 4:15 AM CDT 9:04 PM CDT
Moon 6:52 AM CDT (4/30) 9:05 PM CDT (4/30)
Length of Visible Light 14h 32m
Length of Day
13h 38m
New Moon, 2% of the Moon is Illuminated
Apr 30
New Moon
May 6
First Quarter
May 14
Full
May 21
Last Quarter
May 28
New

Hourly Weather History & Observations

Time (CDT) Temp. Dew Point Humidity Pressure Visibility Wind Dir Wind Speed Gust Speed Precip Events Conditions
12:15 AM 55.4 °F 55.4 °F 100% 29.79 in 4.0 mi Calm Calm - N/A   Overcast
12:35 AM 55.4 °F 55.4 °F 100% 29.80 in 10.0 mi NNW 8.1 mph - N/A   Overcast
12:55 AM 55.4 °F 53.6 °F 94% 29.83 in 10.0 mi NW 8.1 mph - N/A   Overcast
1:15 AM 55.4 °F 53.6 °F 94% 29.79 in 10.0 mi East 6.9 mph - N/A   Overcast
1:35 AM 55.4 °F 53.6 °F 94% 29.79 in 10.0 mi East 6.9 mph - N/A   Overcast
1:55 AM 55.4 °F 55.4 °F 100% 29.77 in 10.0 mi East 3.5 mph - N/A   Overcast
2:15 AM 55.4 °F 55.4 °F 100% 29.77 in 4.0 mi ESE 3.5 mph - N/A   Overcast
2:35 AM 55.4 °F 55.4 °F 100% 29.76 in 7.0 mi East 3.5 mph - N/A   Overcast
2:55 AM 55.4 °F 55.4 °F 100% 29.76 in 10.0 mi Calm Calm - N/A   Overcast
3:15 AM 57.2 °F 55.4 °F 94% 29.76 in 8.0 mi Calm Calm - N/A   Overcast
3:35 AM 57.2 °F 55.4 °F 94% 29.74 in 5.0 mi Calm Calm - N/A   Mostly Cloudy
3:55 AM 57.2 °F 57.2 °F 100% 29.78 in 10.0 mi WNW 8.1 mph - N/A   Overcast
4:15 AM 57.2 °F 55.4 °F 94% 29.76 in 6.0 mi NNW 4.6 mph - N/A   Overcast
4:35 AM 57.2 °F 55.4 °F 94% 29.78 in 10.0 mi Calm Calm - N/A   Overcast
4:55 AM 55.4 °F 55.4 °F 100% 29.77 in 2.0 mi Calm Calm - N/A   Overcast
5:15 AM 55.4 °F 55.4 °F 100% 29.77 in 3.0 mi Calm Calm - N/A   Overcast
5:35 AM 57.2 °F 57.2 °F 100% 29.78 in 2.5 mi Calm Calm - N/A   Mostly Cloudy
5:55 AM 55.4 °F 55.4 °F 100% 29.78 in 4.0 mi Calm Calm - N/A   Overcast
6:15 AM 57.2 °F 57.2 °F 100% 29.79 in 3.0 mi Calm Calm - N/A   Overcast
6:35 AM 57.2 °F 57.2 °F 100% 29.79 in 7.0 mi Calm Calm - N/A   Overcast
6:55 AM 57.2 °F 57.2 °F 100% 29.79 in 3.0 mi NNW 3.5 mph - N/A   Overcast
7:15 AM 57.2 °F 57.2 °F 100% 29.81 in 3.0 mi Calm Calm - N/A   Overcast
7:35 AM 57.2 °F 57.2 °F 100% 29.81 in 3.0 mi Calm Calm - N/A   Mostly Cloudy
7:55 AM 57.2 °F 55.4 °F 94% 29.82 in 2.0 mi Calm Calm - N/A   Overcast
8:15 AM 57.2 °F 55.4 °F 94% 29.83 in 7.0 mi Calm Calm - N/A   Overcast
8:35 AM 57.2 °F 55.4 °F 94% 29.83 in 2.0 mi Calm Calm - N/A   Overcast
8:55 AM 57.2 °F 55.4 °F 94% 29.83 in 10.0 mi Calm Calm - N/A   Overcast
9:15 AM 57.2 °F 57.2 °F 100% 29.81 in 10.0 mi Calm Calm - N/A   Overcast
9:35 AM 57.2 °F 57.2 °F 100% 29.81 in 6.0 mi Calm Calm - N/A   Overcast
9:55 AM 59.0 °F 57.2 °F 94% 29.83 in 2.5 mi Calm Calm - N/A   Overcast
10:15 AM 60.8 °F 57.2 °F 88% 29.84 in 10.0 mi Calm Calm - N/A   Overcast
10:35 AM 60.8 °F 59.0 °F 94% 29.84 in 10.0 mi Calm Calm - N/A   Overcast
10:55 AM 62.6 °F 60.8 °F 94% 29.84 in 10.0 mi WNW 3.5 mph - N/A   Overcast
11:15 AM 60.8 °F 59.0 °F 94% 29.84 in 10.0 mi West 3.5 mph - N/A   Overcast
11:35 AM 62.6 °F 59.0 °F 88% 29.85 in 10.0 mi West 3.5 mph - N/A   Overcast
11:55 AM 62.6 °F 59.0 °F 88% 29.85 in 10.0 mi Calm Calm - N/A   Overcast
12:15 PM 62.6 °F 59.0 °F 88% 29.84 in 10.0 mi Calm Calm - N/A   Mostly Cloudy
12:35 PM 64.4 °F 59.0 °F 83% 29.84 in 10.0 mi WNW 4.6 mph - N/A   Mostly Cloudy
12:55 PM 64.4 °F 59.0 °F 83% 29.85 in 10.0 mi WNW 3.5 mph - N/A   Mostly Cloudy
1:15 PM 64.4 °F 59.0 °F 83% 29.85 in 10.0 mi Calm Calm - N/A   Mostly Cloudy
1:35 PM 66.2 °F 57.2 °F 73% 29.85 in 10.0 mi Calm Calm - N/A   Mostly Cloudy
1:55 PM 66.2 °F 57.2 °F 73% 29.85 in 10.0 mi Calm Calm - N/A   Mostly Cloudy
2:15 PM 66.2 °F 57.2 °F 73% 29.85 in 10.0 mi Calm Calm - N/A   Overcast
2:35 PM 69.8 °F 57.2 °F 64% 29.84 in 10.0 mi Calm Calm - N/A   Mostly Cloudy
2:55 PM 71.6 °F 55.4 °F 57% 29.84 in 10.0 mi West 8.1 mph - N/A   Scattered Clouds
3:15 PM 69.8 °F 53.6 °F 56% 29.84 in 10.0 mi West 10.4 mph - N/A   Scattered Clouds
3:35 PM 69.8 °F 53.6 °F 56% 29.83 in 10.0 mi Variable 6.9 mph - N/A   Scattered Clouds
3:55 PM 71.6 °F 53.6 °F 53% 29.83 in 10.0 mi West 6.9 mph - N/A   Scattered Clouds
4:15 PM 71.6 °F 53.6 °F 53% 29.84 in 10.0 mi WSW 5.8 mph - N/A   Mostly Cloudy
4:35 PM 69.8 °F 53.6 °F 56% 29.84 in 10.0 mi Variable 5.8 mph - N/A   Mostly Cloudy
4:55 PM 69.8 °F 53.6 °F 56% 29.84 in 10.0 mi West 4.6 mph - N/A   Mostly Cloudy
5:15 PM 69.8 °F 53.6 °F 56% 29.85 in 10.0 mi West 4.6 mph - N/A   Overcast
5:35 PM 69.8 °F 53.6 °F 56% 29.85 in 10.0 mi Variable 5.8 mph - N/A   Overcast
5:55 PM 69.8 °F 51.8 °F 53% 29.86 in 10.0 mi West 6.9 mph - N/A   Mostly Cloudy
6:15 PM 68.0 °F 51.8 °F 56% 29.86 in 10.0 mi West 8.1 mph - N/A   Mostly Cloudy
6:35 PM 68.0 °F 50.0 °F 52% 29.86 in 10.0 mi WNW 6.9 mph - N/A   Mostly Cloudy
6:55 PM 66.2 °F 50.0 °F 56% 29.88 in 10.0 mi Variable 4.6 mph - N/A   Unknown
7:15 PM 64.4 °F 48.2 °F 56% 29.89 in 10.0 mi West 6.9 mph - N/A   Mostly Cloudy
7:35 PM 64.4 °F 48.2 °F 56% 29.91 in 10.0 mi NW 8.1 mph - N/A   Mostly Cloudy
7:55 PM 60.8 °F 48.2 °F 63% 29.92 in 10.0 mi NW 10.4 mph - N/A   Mostly Cloudy
8:15 PM 60.8 °F 48.2 °F 63% 29.93 in 10.0 mi NW 6.9 mph - N/A   Mostly Cloudy
8:35 PM 60.8 °F 48.2 °F 63% 29.94 in 10.0 mi NW 6.9 mph - N/A   Overcast
8:55 PM 59.0 °F 46.4 °F 63% 29.95 in 10.0 mi NW 10.4 mph - N/A   Overcast
9:15 PM 57.2 °F 46.4 °F 67% 29.96 in 10.0 mi NNW 8.1 mph - N/A   Overcast
9:35 PM 57.2 °F 46.4 °F 67% 29.97 in 10.0 mi NNW 9.2 mph - N/A   Overcast
9:55 PM 57.2 °F 44.6 °F 63% 29.97 in 10.0 mi NW 6.9 mph - N/A   Overcast
10:15 PM 57.2 °F 46.4 °F 67% 29.97 in 10.0 mi NW 3.5 mph - N/A   Overcast
10:35 PM 55.4 °F 46.4 °F 72% 29.97 in 10.0 mi NNW 5.8 mph - N/A   Overcast
10:55 PM 55.4 °F 46.4 °F 72% 29.97 in 10.0 mi Variable 4.6 mph - N/A   Overcast
11:15 PM 55.4 °F 46.4 °F 72% 29.98 in 10.0 mi Calm Calm - N/A   Overcast
11:35 PM 55.4 °F 44.6 °F 67% 29.98 in 10.0 mi NNW 4.6 mph - N/A   Overcast
11:55 PM 55.4 °F 44.6 °F 67% 29.98 in 10.0 mi NNW 3.5 mph - N/A   Overcast